RJKI

Kikai Airport

Airport
ICAO code
RJKI
IATA Code
KKX
Summary
ICAO Region
APAC
ICAO Territory
Location

Kikai, Kagoshima Prefecture

Serving
Kikaijima
Elevation
15 ft
Coordinates
28° 19' 11" N , 129° 55' 39" E
KCC
Metar
RJKI 172300Z AUTO 21014G25KT 9999 NSC 26/22 Q1006

Kikai Airport, also known as Kikaijima Airport or Kikaiga Shima Airport, is located in Kikai, a town on Kikaijima (also known as Kikai Island, Kikaishima, Kikaigashima, etc.), one of the Amami Islands in the Kagoshima Prefecture of Japan.

Climatology

Humid Sub-tropical climate (Köppen climate classification Cfa)

Runways

Designator Length Width Surface Rops
7/25 1313 30 ASP No/No

Airport map

Aerial View

SKYbrary Partners:

Safety knowledge contributed by: